Location: ???? ??
(36.0534°N, 43.5630°E)
Time: 22:15:28
(UTC+00:00)

Cosmos 1959 Rocket - Pass Details

Date: 18 September 2019
Orbit: 947 x 997 km, 82.9° (Epoch: 19 October)

Event Time Altitude Azimuth Distance (km) Brightness Sun altitude
Rises 17:30:44 0° 353° (N) 3,628 7.9 -28.4°
Reaches altitude 10° 17:33:13 10° 353° (N) 2,682 7.2 -28.9°
Enters shadow 17:39:10 85° 347° (NNW) 966 4.3 -29.9°
